Regional Weather Roundup
Issued by NWS

Home | Current Version | Previous Version | Text Only | Print | Product List | Glossary Off
Versions: 1 2 3 4 5 6 7 8 9 10 11 12 13 14 15 16 17 18 19 20 21 22 23 24 25 26 27 28 29 30 31 32 33 34 35 36 37 38 39 40 41 42 43 44 45 46 47 48 49 50

000
ASUS43 KTOP 251308
RWRKS

WEATHER ROUNDUP FOR KANSAS
NATIONAL WEATHER SERVICE GOODLAND KS
800 AM CDT TUE APR 25 2017

NOTE:  "FAIR" INDICATES FEW OR NO CLOUDS BELOW 12,000 FEET WITH NO
SIGNIFICANT WEATHER AND/OR OBSTRUCTIONS TO VISIBILITY.

KSZ001>006-013>018-027>032-041>047-251400-
NORTHWEST KANSAS

CITY           SKY/WX    TMP DP  RH WIND       PRES   REMARKS
GOODLAND       CLOUDY    47  42  83 N20       29.55S
HAYS           CLOUDY    52  44  74 NE17      29.41S
HILL CITY      CLOUDY    50  42  74 N9        29.51R
RUSSELL        SUNNY     50  45  83 NE12      29.40S
$$

KSZ061>065-074>080-084>089-251400-
SOUTHWEST KANSAS

CITY           SKY/WX    TMP DP  RH WIND       PRES   REMARKS
DODGE CITY     SUNNY     48  47  96 NE3       29.38S FOG
ELKHART          N/A    N/A N/A N/A MISG        N/A
GARDEN CITY    SUNNY     48  47  96 N20       29.42R
GREAT BEND     SUNNY     56  50  80 E7        29.39R
PRATT          MOSUNNY   50  47  88 NE6       29.38R
$$

KSZ066>073-081>083-090>101-251400-
SOUTHEAST KANSAS

CITY           SKY/WX    TMP DP  RH WIND       PRES   REMARKS
CHANUTE        CLOUDY    63  49  60 S16       29.46S
COFFEYVILLE    MOSUNNY   60  50  69 SE13      29.45F
HUTCHINSON     CLOUDY    56  50  80 E7        29.38R
MEDICINE LODGE   N/A     54  50  86 E5        29.34R
NEWTON         CLOUDY    56  50  80 SE12      29.39F
PARSONS        PTSUNNY   62  48  60 S9G21     29.46S
WICHITA INTL   CLOUDY    59  52  77 SE9       29.37R
WICHITA JABRA  CLOUDY    59  51  75 SE13      29.39R
WICHITA MCCONL CLOUDY    59  50  71 S10       29.38R
WINFIELD       MOSUNNY   59  51  75 SE10      29.40R
$$

KSZ007>012-019>026-033>040-048>060-102>105-251400-
NORTHEAST KANSAS

CITY           SKY/WX    TMP DP  RH WIND       PRES   REMARKS
CONCORDIA      PTSUNNY   51  48  89 NE12      29.44R
EMPORIA        PTSUNNY   59  50  72 S22G30    29.40F
LAWRENCE       PTSUNNY   60  49  66 E10       29.46F
MANHATTAN      CLOUDY    60  50  69 E3        29.41S
MARYSVILLE     CLOUDY    54  50  87 N9        29.45R
OLATHE IND     CLOUDY    59  46  62 SE12      29.47F
OLATHE EXE     CLOUDY    57  47  69 SE8       29.48F
SALINA         PTSUNNY   61  50  67 SE5       29.40R
TOPEKA BILLARD PTSUNNY   60  50  69 SE10      29.44F
TOPEKA FORBES  MOSUNNY   62  49  62 SE12      29.43F
$$




USA.gov is the U.S. government's official web portal to all federal, state and local government web resources and services.